Olean, NY

5:51 PM EDT on July 20, 2017 (GMT -0400)
Cattaraugus County-Olean

Weather History for KOLE - January, 2013

Change the Weather History Date:

Thursday, January 31, 2013

  Actual Average (KBFD) Record (KBFD)
Temperature  
Mean Temperature 32 °F -  
Max Temperature 48 °F 28 °F 55 °F (2016)
Min Temperature 15 °F 13 °F -13 °F (2010)
Degree Days  
Heating Degree Days 32    
Moisture  
Dew Point 20 °F    
Average Humidity 84    
Maximum Humidity 100    
Minimum Humidity 68    
Precipitation  
Precipitation 0.00 in - - ()
Sea Level Pressure  
Sea Level Pressure 29.38 in    
Wind  
Wind Speed 13 mph (West)    
Max Wind Speed 25 mph    
Max Gust Speed 41 mph    
Visibility 3 miles    
Events Rain , Snow    
Averages and records for this station are not official NWS values.
T = Trace of Precipitation, MM = Missing Value Source: NWS Daily Summary

Daily Weather History Graph

Daily Weather History Graph

Search for Another Location

Airport or City:

Trip Planner

Search our weather history database for the weather conditions in past years. The results will help you decide how hot, cold, wet, or windy it might be!

Date:

Astronomy

Jan. 31, 2013 Rise Set
Actual Time 7:27 AM EST 5:26 PM EST
Civil Twilight 6:57 AM EST 5:56 PM EST
Nautical Twilight 6:24 AM EST 6:30 PM EST
Astronomical Twilight 5:51 AM EST 7:03 PM EST
Moon 10:34 PM EST (1/31) 9:19 AM EST (1/31)
Length of Visible Light 10h 58m
Length of Day
9h 59m
Waning Gibbous, 80% of the Moon is Illuminated
Jan 31
Waning Gibbous
Feb 3
Last Quarter
Feb 10
New
Feb 17
First Quarter
Feb 25
Full

Hourly Weather History & Observations

Time (EST) Temp. Windchill Dew Point Humidity Pressure Visibility Wind Dir Wind Speed Gust Speed Precip Events Conditions
12:15 AM 48.2 °F - 46.4 °F 93% 29.10 in 7.0 mi WSW 10.4 mph 24.2 mph N/A Rain Rain
12:35 AM 46.4 °F 40.4 °F 42.8 °F 87% 29.11 in 7.0 mi WSW 13.8 mph 29.9 mph N/A Rain Light Rain
12:55 AM 44.6 °F 38.4 °F 42.8 °F 93% 29.09 in 7.0 mi WSW 12.7 mph 21.9 mph N/A Rain Rain
1:15 AM 42.8 °F 36.6 °F 42.8 °F 100% 29.09 in 7.0 mi WSW 11.5 mph 18.4 mph N/A Rain Rain
1:35 AM 39.2 °F 30.8 °F 37.4 °F 93% 29.11 in 5.0 mi WNW 15.0 mph 29.9 mph N/A Rain Rain
1:55 AM 33.8 °F 25.3 °F 33.8 °F 100% 29.09 in 4.0 mi WNW 11.5 mph 24.2 mph N/A Rain Rain
2:15 AM 33.8 °F 24.8 °F 32.0 °F 93% 29.11 in 7.0 mi West 12.7 mph 25.3 mph N/A   Overcast
2:35 AM 32.0 °F 24.2 °F 32.0 °F 100% 29.12 in 5.0 mi West 9.2 mph 23.0 mph N/A Snow Light Snow
2:55 AM 32.0 °F 21.6 °F 32.0 °F 100% 29.14 in 5.0 mi West 15.0 mph 28.8 mph N/A Snow Light Snow
3:15 AM 32.0 °F 21.2 °F 32.0 °F 100% 29.10 in 2.5 mi WSW 16.1 mph 28.8 mph N/A Snow Light Snow
3:35 AM 32.0 °F 23.0 °F 30.2 °F 93% 29.12 in 4.0 mi WSW 11.5 mph 27.6 mph N/A Snow Light Snow
3:55 AM 32.0 °F 23.0 °F 30.2 °F 93% 29.12 in 2.5 mi West 11.5 mph 27.6 mph N/A Snow Light Snow
4:15 AM 32.0 °F 23.0 °F 30.2 °F 93% 29.14 in 3.0 mi West 11.5 mph 27.6 mph N/A Snow Light Snow
4:35 AM 30.2 °F 18.1 °F 28.4 °F 93% 29.15 in 0.8 mi West 18.4 mph 41.4 mph N/A Snow Light Snow
4:55 AM 30.2 °F 18.9 °F 26.6 °F 86% 29.17 in 7.0 mi West 16.1 mph 32.2 mph N/A   Overcast
5:15 AM 28.4 °F 15.1 °F 23.0 °F 80% 29.18 in 10.0 mi West 20.7 mph 36.8 mph N/A   Overcast
5:35 AM 28.4 °F 16.6 °F 23.0 °F 80% 29.20 in 10.0 mi West 16.1 mph 38.0 mph N/A   Overcast
5:55 AM 26.6 °F 15.2 °F 21.2 °F 80% 29.22 in 7.0 mi West 13.8 mph 29.9 mph N/A Snow Light Snow
6:15 AM 26.6 °F 15.2 °F 21.2 °F 80% 29.23 in 3.0 mi West 13.8 mph 35.7 mph N/A Snow Light Snow
6:35 AM 26.6 °F 15.7 °F 21.2 °F 80% 29.25 in 4.0 mi West 12.7 mph 34.5 mph N/A Snow Light Snow
7:15 AM 26.6 °F 11.4 °F 19.4 °F 74% 29.26 in 5.0 mi West 25.3 mph 36.8 mph N/A Snow Light Snow
7:35 AM 26.6 °F 14.3 °F 19.4 °F 74% 29.28 in 7.0 mi WSW 16.1 mph 34.5 mph N/A Snow Light Snow
7:55 AM 23.0 °F 10.6 °F 23.0 °F 100% 29.29 in 0.2 mi West 13.8 mph 23.0 mph N/A Snow Heavy Snow
8:15 AM 23.0 °F 11.7 °F 23.0 °F 100% 29.30 in 0.2 mi West 11.5 mph 25.3 mph N/A Snow Heavy Snow
8:35 AM 23.0 °F 9.2 °F 21.2 °F 93% 29.31 in 0.2 mi West 17.3 mph 29.9 mph N/A Snow Snow
8:55 AM 23.0 °F 13.1 °F 21.2 °F 93% 29.33 in 0.2 mi West 9.2 mph 23.0 mph N/A Snow Heavy Snow
9:15 AM 23.0 °F 10.6 °F 21.2 °F 93% 29.33 in 0.5 mi West 13.8 mph 25.3 mph N/A Snow Snow
9:35 AM 24.8 °F 11.1 °F 19.4 °F 80% 29.35 in 1.2 mi West 18.4 mph 35.7 mph N/A Snow Light Snow
9:55 AM 23.0 °F 10.1 °F 17.6 °F 80% 29.36 in 1.2 mi West 15.0 mph 33.4 mph N/A Snow Light Snow
10:15 AM 23.0 °F 10.6 °F 21.2 °F 93% 29.37 in 0.2 mi West 13.8 mph 27.6 mph N/A Snow Heavy Snow
10:35 AM 21.2 °F 10.9 °F 19.4 °F 93% 29.38 in 0.2 mi WSW 9.2 mph 25.3 mph N/A Snow Heavy Snow
10:55 AM 23.0 °F 10.6 °F 19.4 °F 86% 29.38 in 0.2 mi West 13.8 mph 24.2 mph N/A Snow Light Snow
11:15 AM 23.0 °F 8.3 °F 15.8 °F 74% 29.38 in 2.5 mi West 19.6 mph 38.0 mph N/A Snow Light Snow
11:35 AM 23.0 °F 9.2 °F 14.0 °F 68% 29.39 in 2.0 mi West 17.3 mph 34.5 mph N/A Snow Light Snow
11:55 AM 23.0 °F 10.1 °F 15.8 °F 74% 29.40 in 1.8 mi WSW 15.0 mph 29.9 mph N/A Snow Light Snow
12:15 PM 23.0 °F 9.6 °F 17.6 °F 80% 29.41 in 0.5 mi West 16.1 mph 32.2 mph N/A Snow Light Snow
12:35 PM 23.0 °F 10.6 °F 14.0 °F 68% 29.41 in 0.8 mi West 13.8 mph 32.2 mph N/A Snow Light Snow
12:55 PM 21.2 °F 9.5 °F 17.6 °F 86% 29.42 in 0.2 mi West 11.5 mph 32.2 mph N/A Snow Heavy Snow
1:15 PM 21.2 °F 8.3 °F 15.8 °F 80% 29.42 in 0.8 mi WSW 13.8 mph 27.6 mph N/A Snow Light Snow
1:35 PM 21.2 °F 11.7 °F 15.8 °F 80% 29.44 in 0.5 mi West 8.1 mph 33.4 mph N/A Snow Snow
1:55 PM 21.2 °F 11.7 °F 17.6 °F 86% 29.44 in 0.2 mi WSW 8.1 mph 31.1 mph N/A Snow Snow
2:15 PM 21.2 °F 9.5 °F 15.8 °F 80% 29.45 in 1.2 mi West 11.5 mph 27.6 mph N/A Snow Light Snow
2:35 PM 21.2 °F 8.9 °F 17.6 °F 86% 29.46 in 0.8 mi WSW 12.7 mph 23.0 mph N/A Snow Light Snow
2:55 PM 21.2 °F 10.1 °F 15.8 °F 80% 29.47 in 1.5 mi WSW 10.4 mph 26.5 mph N/A Snow Light Snow
3:15 PM 21.2 °F 7.8 °F 14.0 °F 74% 29.48 in 2.5 mi WSW 15.0 mph 24.2 mph N/A Snow Light Snow
3:35 PM 19.4 °F 7.2 °F 12.2 °F 74% 29.48 in 0.8 mi West 11.5 mph 34.5 mph N/A Snow Light Snow
3:55 PM 19.4 °F 8.6 °F 14.0 °F 80% 29.50 in 1.0 mi West 9.2 mph 28.8 mph N/A Snow Light Snow
4:15 PM 19.4 °F 7.2 °F 12.2 °F 74% 29.51 in 1.5 mi West 11.5 mph 31.1 mph N/A Snow Light Snow
4:35 PM 19.4 °F 8.6 °F 14.0 °F 80% 29.52 in 0.8 mi West 9.2 mph 20.7 mph N/A Snow Light Snow
4:55 PM 19.4 °F 7.9 °F 10.4 °F 68% 29.53 in 1.5 mi West 10.4 mph 27.6 mph N/A Snow Light Snow
5:15 PM 19.4 °F 7.2 °F 10.4 °F 68% 29.54 in 2.5 mi West 11.5 mph 31.1 mph N/A Snow Light Snow
5:35 PM 17.6 °F 4.3 °F 12.2 °F 79% 29.55 in 1.2 mi WSW 12.7 mph 26.5 mph N/A Snow Light Snow
5:55 PM 17.6 °F 5.7 °F 12.2 °F 79% 29.56 in 2.0 mi WSW 10.4 mph 21.9 mph N/A Snow Light Snow
6:15 PM 17.6 °F 2.2 °F 10.4 °F 73% 29.56 in 5.0 mi WSW 17.3 mph 24.2 mph N/A Snow Light Snow
6:35 PM 17.6 °F 4.3 °F 12.2 °F 79% 29.58 in 4.0 mi WSW 12.7 mph 18.4 mph N/A Snow Light Snow
6:55 PM 17.6 °F 3.2 °F 12.2 °F 79% 29.58 in 1.5 mi West 15.0 mph 24.2 mph N/A Snow Light Snow
7:15 PM 17.6 °F 5.0 °F 12.2 °F 79% 29.58 in 3.0 mi West 11.5 mph 24.2 mph N/A Snow Light Snow
7:35 PM 17.6 °F 4.3 °F 12.2 °F 79% 29.59 in 2.0 mi WSW 12.7 mph 19.6 mph N/A Snow Light Snow
7:55 PM 17.6 °F 5.7 °F 12.2 °F 79% 29.59 in 2.0 mi WSW 10.4 mph 18.4 mph N/A Snow Light Snow
8:15 PM 17.6 °F 6.4 °F 12.2 °F 79% 29.59 in 2.5 mi West 9.2 mph 20.7 mph N/A Snow Light Snow
8:35 PM 17.6 °F 5.7 °F 12.2 °F 79% 29.59 in 2.0 mi West 10.4 mph 18.4 mph N/A Snow Light Snow
8:55 PM 17.6 °F 8.2 °F 14.0 °F 86% 29.60 in 1.8 mi WSW 6.9 mph 21.9 mph N/A Snow Light Snow
9:15 PM 17.6 °F 7.3 °F 14.0 °F 86% 29.60 in 1.2 mi WSW 8.1 mph 16.1 mph N/A Snow Light Snow
9:35 PM 17.6 °F 6.4 °F 14.0 °F 86% 29.60 in 1.2 mi WSW 9.2 mph - N/A Snow Light Snow
9:55 PM 17.6 °F 5.0 °F 14.0 °F 86% 29.60 in 1.2 mi West 11.5 mph 23.0 mph N/A Snow Light Snow
10:15 PM 17.6 °F 9.3 °F 14.0 °F 86% 29.61 in 1.0 mi WSW 5.8 mph - N/A Snow Light Snow
10:35 PM 17.6 °F 4.3 °F 14.0 °F 86% 29.61 in 3.0 mi West 12.7 mph 20.7 mph N/A Snow Light Snow
10:55 PM 17.6 °F 9.3 °F 14.0 °F 86% 29.61 in 0.5 mi West 5.8 mph 16.1 mph N/A Snow Snow
11:15 PM 17.6 °F 8.2 °F 14.0 °F 86% 29.61 in 1.2 mi West 6.9 mph 19.6 mph N/A Snow Light Snow
11:35 PM 17.6 °F 5.7 °F 14.0 °F 86% 29.61 in 0.5 mi West 10.4 mph 17.3 mph N/A Snow Snow
11:55 PM 15.8 °F 4.2 °F 12.2 °F 86% 29.61 in 3.0 mi West 9.2 mph 20.7 mph N/A Snow Light Snow